Regional Weather Roundup
Issued by NWS Mobile, AL

Home | Current Version | Previous Version | Text Only | Print | Product List | Glossary On
Versions: 1 2 3 4 5 6 7 8 9 10 11 12 13 14 15 16 17 18 19 20 21 22 23 24 25 26 27 28 29 30 31 32 33 34 35 36 37 38 39 40 41 42 43 44 45 46 47 48 49 50
338
ASUS44 KMOB 221216
RWRMOB
REGIONAL WEATHER ROUNDUP
NATIONAL WEATHER SERVICE MOBILE AL
700 AM CDT FRI MAY 22 2015

ALZ061>064-221300-
COASTAL ALABAMA


CITY           SKY/WX    TMP DP  RH WIND       PRES   REMARKS
MOBILE REG APT PTSUNNY   57  54  89 N12       30.19R
6HR MIN TEMP:  57; 6HR MAX TEMP:  68;

BROOKLEY FIELD PTSUNNY   61  55  81 N10G20    30.19R
6HR MIN TEMP:  61; 6HR MAX TEMP:  69;

GULF SHORES    PTSUNNY   63  59  86 N7        30.15R
6HR MIN TEMP:  63; 6HR MAX TEMP:  70;


$$

ALZ051>060-221300-
INTERIOR SOUTHWEST AND SOUTH CENTRAL ALABAMA


CITY           SKY/WX    TMP DP  RH WIND       PRES   REMARKS
ANDALUSIA/OPP  SUNNY     61  51  70 N3        30.18R
6HR MIN TEMP:  60; 6HR MAX TEMP:  71;

EVERGREEN      MOSUNNY   58  52  80 N6        30.19R
6HR MIN TEMP:  56; 6HR MAX TEMP:  65;

FLORALA        SUNNY     60  52  74 N8        30.18R
6HR MIN TEMP:  58; 6HR MAX TEMP:  68;

GREENVILLE     PTSUNNY   56  50  80 N7        30.18R
6HR MIN TEMP:  55; 6HR MAX TEMP:  62;


$$

FLZ001>006-221300-
WESTERN FLORIDA PANHANDLE


CITY           SKY/WX    TMP DP  RH WIND       PRES   REMARKS
CRESTVIEW      MOSUNNY   62  54  74 NE12      30.17R
6HR MIN TEMP:  62; 6HR MAX TEMP:  71;

DESTIN         MOSUNNY   67  59  75 N10       30.13R
6HR MIN TEMP:  66; 6HR MAX TEMP:  75;

DUKE FIELD     FAIR      63  54  72 N14       30.14R HAZE
6HR MIN TEMP:  63; 6HR MAX TEMP:  71;

MARY ESTHER    PTSUNNY   64  58  80 N10G23    30.12R
6HR MIN TEMP:  64; 6HR MAX TEMP:  71;

MILTON         PTSUNNY   63  54  72 NE12      30.16R
6HR MIN TEMP:  63; 6HR MAX TEMP:  72;

PENSACOLA      MOSUNNY   63  56  78 N10       30.15R
6HR MIN TEMP:  63; 6HR MAX TEMP:  73;

NAS PENSACOLA  PTSUNNY   65  60  84 N9        30.14R
6HR MIN TEMP:  64; 6HR MAX TEMP:  72;

VALPARAISO     PTSUNNY   65  56  74 N16       30.13R
6HR MIN TEMP:  65; 6HR MAX TEMP:  73;


$$

...MARINE OBSERVATIONS...

STATION/POSITION TIME  SKY/WX   TEMP    WIND        PRES    VSBY
                                AIR SEA DIR/SP/G
                 (UTC)          (F)     (DEG/KT/KT) (MB)    (MI)
PASCAGOULA       1100            64      20/ 13/ 18 1020.2R
PETIT BOIS ISL   1100            65      10/ 15/ 18 1020.7R
E DAUPHIN ISLAND 1200            65      10/ 20/ 22 1020.9R
MIDDLE BAY LIGHT 1100            65      10/ 21     1019.0S
USCG MOBILE BAY  1100            62 80   10/  9/ 14 1019.8R
STATE DOCKS      1100            62 78              1020.7R
MEAHER PARK      1200            60     350/  8     1022.0R
FORT MORGAN      1100            67      40/ 19/ 22 1019.6R
12 S ORANGE BCH  1150            69 80   20/ 14/ 17 1019.7R
WVE H/P(F/S)=  2/ 3

PENSACOLA BAY    1100            66 82   10/  6/ 12 1020.3R
64 S DAUPHIN ISL 1150            77 81   60/ 17/ 21 1019.3R
WVE H/P(F/S)=  3/ 4

67 S FORT MORGAN 1130            77      60/ 16     1018.6R
115 SE PENSACOLA 1150            79 81   60/ 10/ 12 1018.6R
WVE H/P(F/S)=  2/ 4

MID GULF/42001   1150            80 82  120/  6/  8 1018.3R
WVE H/P(F/S)=  1

EAST GULF/42003  1150            81 83   CALM  /  2 1018.1R
WVE H/P(F/S)=  1/ 8


$$

...NEARBY LOCATIONS

CITY           SKY/WX    TMP DP  RH WIND       PRES   REMARKS
GULFPORT       PTSUNNY   61  54  77 N12G23    30.16R
6HR MIN TEMP:  62; 6HR MAX TEMP:  70;

BILOXI         PTSUNNY   61  56  83 NE15      30.16R
6HR MIN TEMP:  61; 6HR MAX TEMP:  70;

PASCAGOULA     PTSUNNY   60  55  83 N10       30.18R
6HR MIN TEMP:  60; 6HR MAX TEMP:  69;

HATTIESBURG    MOSUNNY   57  53  86 N7        30.23R
6HR MIN TEMP:  56; 6HR MAX TEMP:  65;

LAUREL         MOSUNNY   55  50  82 N7        30.24R
6HR MIN TEMP:  54; 6HR MAX TEMP:  63;

MERIDIAN       MOSUNNY   54  48  80 NE9       30.25R
6HR MIN TEMP:  51; 6HR MAX TEMP:  55;

MERIDIAN NAS   PTSUNNY   52  48  86 N5        30.26R
6HR MIN TEMP:  50; 6HR MAX TEMP:  54;

MONTGOMERY     SUNNY     57  48  72 N8        30.20R
6HR MIN TEMP:  55; 6HR MAX TEMP:  61;

MAXWELL AFB    SUNNY     56  49  78 N6        30.19R
6HR MIN TEMP:  54; 6HR MAX TEMP:  60;

TROY           PTSUNNY   57  52  83 N7        30.18R
6HR MIN TEMP:  56; 6HR MAX TEMP:  64;

FORT RUCKER    SUNNY     60  51  72 N8        30.15R
6HR MIN TEMP:  58; 6HR MAX TEMP:  68;

DALEVILLE      SUNNY     60  51  69 N9        30.16R
6HR MIN TEMP:  59; 6HR MAX TEMP:  68;

DOTHAN         SUNNY     60  52  74 N7        30.19R
6HR MIN TEMP:  58; 6HR MAX TEMP:  67;


$$

...OTHER SURROUNDING LOCATIONS...

CITY           SKY/WX    TMP DP  RH WIND       PRES   REMARKS
BIRMINGHAM     MOSUNNY   50  47  89 N5        30.24R
6HR MIN TEMP:  48; 6HR MAX TEMP:  52;

TUSCALOOSA     MOSUNNY   52  47  83 N5        30.25R
6HR MIN TEMP:  49; 6HR MAX TEMP:  54;

COLUMBUS GA    PTSUNNY   56  46  69 N5        30.17R
6HR MIN TEMP:  55; 6HR MAX TEMP:  61;

PANAMA CITY    NOT AVBL
TALLAHASSEE    MOSUNNY   69  60  73 N10       30.10R
6HR MIN TEMP:  69; 6HR MAX TEMP:  76;

BATON ROUGE    CLOUDY    64  60  87 NE7       30.17R
6HR MIN TEMP:  63; 6HR MAX TEMP:  66;

NEW ORLEANS    CLOUDY    69  63  81 NE15      30.15R
6HR MIN TEMP:  69; 6HR MAX TEMP:  74;

SLIDELL        CLOUDY    63  60  90 N10       30.17R
6HR MIN TEMP:  63; 6HR MAX TEMP:  71; 6HR PCP: TRACE;

JACKSON        SUNNY     54  49  83 NE7       30.24R
6HR MIN TEMP:  52; 6HR MAX TEMP:  56;

MCCOMB         CLOUDY    58  52  80 NE7       30.21R
6HR MIN TEMP:  58; 6HR MAX TEMP:  63;


$$

...SURROUNDING MARINE OBSERVATIONS...

STATION/POSITION TIME  SKY/WX   TEMP    WIND        PRES    VSBY
                                AIR SEA DIR/SP/G
                 (UTC)          (F)     (DEG/KT/KT) (MB)    (MI)
WAVELAND         1100            63 76   30/ 14/ 16 1020.9R
PASCAGOULA RGN A 1100            63      20/ 13/ 17 1020.0R
PASCAGOULA PORT  1100               80                N/A
GRAND ISLE       1100            74 83   50/ 12/ 21 1018.9R
SOUTHWEST PASS   1200            74      30/ 18/ 19 1019.0R
PILOT STATION E  1100            78 74   10/ 14/ 16 1018.8R
SHELL BEACH      1100            70 81   40/ 16/ 19 1019.4R
PANAMA CITY      1100            69 83   20/ 11/ 14 1018.4R
APALACHICOLA     1100            71 82   20/  7/  9 1018.5R
TYNDALL TOWER C  1200            73      20/ 13/ 15 1018.9R
S APLCHCLA/42036 1150            80 80   40/ 12/ 14 1017.9R
WVE H/P(F/S)=  1/ 4


$$




USA.gov is the U.S. government's official web portal to all federal, state and local government web resources and services.